Weather History for Russell, KS

Change the Weather History Date:

Saturday, February 16, 2013

  Actual Average Record
Temperature  
Mean Temperature 34 °F -  
Max Temperature 59 °F 42 °F 73 °F (2011)
Min Temperature 10 °F 19 °F -4 °F (1979)
Degree Days  
Heating Degree Days 30    
Moisture  
Dew Point 18 °F    
Average Humidity 56    
Maximum Humidity 86    
Minimum Humidity 27    
Precipitation  
Precipitation 0.00 in - - ()
Sea Level Pressure  
Sea Level Pressure 30.16 in    
Wind  
Wind Speed 8 mph (SW)    
Max Wind Speed 22 mph    
Max Gust Speed 30 mph    
Visibility 10 miles    
Events      
Averages and records for this station are not official NWS values.
T = Trace of Precipitation, MM = Missing Value Source: NWS Daily Summary

Daily Weather History Graph

Daily Weather History Graph

Search for Another Location

Airport:

Trip Planner

Search our weather history database for the weather conditions in past years. The results will help you decide how hot, cold, wet, or windy it might be!

Date:

Astronomy

Feb. 16, 2013 Rise Set
Actual Time 7:24 AM CST 6:14 PM CST
Civil Twilight 6:57 AM CST 6:41 PM CST
Nautical Twilight 6:26 AM CST 7:12 PM CST
Astronomical Twilight 5:55 AM CST 7:43 PM CST
Moon 10:42 AM CST (2/16) 12:11 AM CST (2/16)
Length of Visible Light 11h 43m
Length of Day
10h 49m
Waxing Crescent, 39% of the Moon is Illuminated
Feb 16
Waxing Crescent
Feb 17
First Quarter
Feb 25
Full
Mar 4
Last Quarter
Mar 11
New

Hourly Weather History & Observations

Time (CST) Temp. Windchill Dew Point Humidity Pressure Visibility Wind Dir Wind Speed Gust Speed Precip Events Conditions
12:53 AM 14.0 °F 5.1 °F 7.0 °F 74% 30.42 in 10.0 mi West 5.8 mph - N/A   Clear
1:53 AM 14.0 °F 5.1 °F 7.0 °F 74% 30.41 in 10.0 mi West 5.8 mph - N/A   Clear
2:53 AM 12.9 °F - 6.1 °F 74% 30.40 in 10.0 mi Calm Calm - N/A   Clear
3:53 AM 10.9 °F 2.9 °F 6.1 °F 81% 30.38 in 10.0 mi WSW 4.6 mph - N/A   Clear
4:53 AM 12.0 °F 1.5 °F 7.0 °F 80% 30.36 in 10.0 mi WSW 6.9 mph - N/A   Clear
5:53 AM 14.0 °F 5.1 °F 10.4 °F 86% 30.25 in 10.0 mi South 5.8 mph - N/A   Partly Cloudy
6:53 AM 14.0 °F 2.9 °F 9.0 °F 80% 30.31 in 10.0 mi SSW 8.1 mph - N/A   Mostly Cloudy
7:53 AM 19.0 °F 9.0 °F 12.9 °F 77% 30.28 in 10.0 mi SSW 8.1 mph - N/A   Overcast
8:53 AM 27.0 °F 14.7 °F 17.1 °F 66% 30.25 in 10.0 mi SSW 16.1 mph - N/A   Overcast
9:53 AM 33.1 °F 21.2 °F 16.0 °F 50% 30.20 in 10.0 mi South 20.7 mph 26.5 mph N/A   Overcast
10:53 AM 39.0 °F 28.8 °F 19.0 °F 45% 30.15 in 10.0 mi SW 21.9 mph 29.9 mph N/A   Scattered Clouds
11:53 AM 45.0 °F 37.4 °F 19.9 °F 37% 30.13 in 10.0 mi WSW 18.4 mph - N/A   Clear
12:53 PM 51.1 °F - 21.9 °F 32% 30.08 in 10.0 mi West 11.5 mph - N/A   Overcast
1:53 PM 55.9 °F - 23.0 °F 28% 30.05 in 10.0 mi NW 12.7 mph - N/A   Scattered Clouds
2:53 PM 57.9 °F - 25.0 °F 28% 30.02 in 10.0 mi NNW 17.3 mph 25.3 mph N/A   Partly Cloudy
3:53 PM 59.0 °F - 25.0 °F 27% 30.02 in 10.0 mi NNW 10.4 mph 19.6 mph N/A   Clear
4:53 PM 59.0 °F - 25.0 °F 27% 30.01 in 10.0 mi North 6.9 mph - N/A   Clear
5:53 PM 54.0 °F - 25.0 °F 33% 30.01 in 10.0 mi NNE 4.6 mph - N/A   Overcast
6:53 PM 48.0 °F - 25.0 °F 41% 30.02 in 10.0 mi SE 4.6 mph - N/A   Clear
7:53 PM 43.0 °F 37.7 °F 24.1 °F 47% 30.03 in 10.0 mi ESE 9.2 mph - N/A   Clear
8:53 PM 37.0 °F 31.0 °F 24.1 °F 59% 30.01 in 10.0 mi SSE 8.1 mph - N/A   Clear
9:53 PM 34.0 °F 26.6 °F 23.0 °F 64% 30.02 in 10.0 mi SSE 9.2 mph - N/A   Clear
10:53 PM 33.1 °F 26.9 °F 23.0 °F 66% 30.00 in 10.0 mi South 6.9 mph - N/A   Clear
11:53 PM 33.1 °F 26.1 °F 23.0 °F 66% 29.99 in 10.0 mi SSW 8.1 mph - N/A   Clear